• In Czech Republic
  • List of Countries
  • For 7 days
  • Water Temperature
  • Satellite Maps
  • Weather Map
  • Weather Widgets
  • user-avatar
    Login

    Hourly Weather Great Malvern

    Today, 19 November, Sunday

    Time Temperature Precipitation Wind Pressure Humidity
    00:00 +3°C° 0 mm 2 mps 756 mmHg 91%
    01:00 +3°C° 0 mm 2 mps 756 mmHg 91%
    02:00 +3°C° 0 mm 2 mps 757 mmHg 91%
    03:00 +3°C° 0 mm 2 mps 757 mmHg 91%
    04:00 +3°C° 0 mm 2 mps 757 mmHg 91%
    05:00 +2°C° 0 mm 2 mps 757 mmHg 90%
    06:00 +2°C° 0 mm 2 mps 757 mmHg 90%
    07:00 +2°C° 0 mm 2 mps 757 mmHg 89%
    08:00 +3°C° 0 mm 2 mps 758 mmHg 88%
    09:00 +4°C° 0 mm 1 mps 758 mmHg 87%
    10:00 +4°C° 0 mm 2 mps 758 mmHg 82%
    11:00 +6°C° 0 mm 2 mps 758 mmHg 78%
    12:00 +7°C° 0 mm 2 mps 758 mmHg 73%
    13:00 +8°C° 0 mm 1 mps 758 mmHg 75%
    14:00 +8°C° 0 mm 1 mps 758 mmHg 77%
    15:00 +8°C° 0 mm 1 mps 758 mmHg 78%
    16:00 +7°C° 0 mm 1 mps 757 mmHg 81%
    17:00 +6°C° 0 mm 2 mps 757 mmHg 84%
    18:00 +5°C° 0 mm 2 mps 757 mmHg 87%
    19:00 +5°C° 0 mm 2 mps 757 mmHg 88%
    20:00 +4°C° 0 mm 3 mps 757 mmHg 89%
    21:00 +5°C° 0 mm 3 mps 756 mmHg 90%
    22:00 +5°C° 0 mm 3 mps 756 mmHg 91%
    23:00 +6°C° 0 mm 4 mps 756 mmHg 93%

    Tomorrow, 20 November, Monday

    Time Temperature Precipitation Wind Pressure Humidity
    00:00 +6°C° 0 mm 4 mps 755 mmHg 94%
    01:00 +7°C° 0 mm 5 mps 755 mmHg 94%
    02:00 +8°C° 0 mm 5 mps 754 mmHg 93%
    03:00 +8°C° 0 mm 6 mps 753 mmHg 92%
    04:00 +9°C° 0.1 mm 6 mps 753 mmHg 91%
    05:00 +9°C° 0.1 mm 6 mps 752 mmHg 90%
    06:00 +9°C° 0.1 mm 7 mps 752 mmHg 89%
    07:00 +9°C° 0 mm 7 mps 752 mmHg 89%
    08:00 +10°C° 0 mm 7 mps 752 mmHg 89%
    09:00 +10°C° 0 mm 7 mps 751 mmHg 89%
    10:00 +10°C° 0.1 mm 7 mps 751 mmHg 89%
    11:00 +11°C° 0.1 mm 7 mps 751 mmHg 88%
    12:00 +11°C° 0.1 mm 7 mps 750 mmHg 88%
    13:00 +11°C° 0.2 mm 8 mps 750 mmHg 89%
    14:00 +11°C° 0.2 mm 8 mps 750 mmHg 89%
    15:00 +11°C° 0.2 mm 8 mps 749 mmHg 89%
    16:00 +11°C° 0.6 mm 8 mps 749 mmHg 90%
    17:00 +12°C° 0.6 mm 7 mps 749 mmHg 90%
    18:00 +12°C° 0.6 mm 7 mps 749 mmHg 90%
    19:00 +13°C° 0.2 mm 6 mps 749 mmHg 91%
    20:00 +13°C° 0.2 mm 6 mps 749 mmHg 92%
    21:00 +12°C° 0.2 mm 5 mps 750 mmHg 92%
    22:00 +12°C° 0.1 mm 5 mps 749 mmHg 92%
    23:00 +12°C° 0.1 mm 5 mps 749 mmHg 92%

    Day after tomorrow, 21 November, Tuesday

    Time Temperature Precipitation Wind Pressure Humidity
    00:00 +12°C° 0.1 mm 5 mps 749 mmHg 92%
    01:00 +12°C° 0 mm 5 mps 749 mmHg 93%
    02:00 +12°C° 0 mm 5 mps 749 mmHg 93%
    03:00 +10°C° 0 mm 5 mps 748 mmHg 94%
    04:00 +10°C° 0 mm 5 mps 748 mmHg 94%
    05:00 +11°C° 0 mm 4 mps 748 mmHg 94%
    06:00 +11°C° 0 mm 4 mps 748 mmHg 94%
    07:00 +10°C° 0 mm 5 mps 747 mmHg 93%
    08:00 +10°C° 0 mm 5 mps 747 mmHg 92%
    09:00 +10°C° 0 mm 5 mps 747 mmHg 92%
    10:00 +10°C° 0 mm 6 mps 747 mmHg 90%
    11:00 +11°C° 0 mm 6 mps 746 mmHg 87%
    12:00 +11°C° 0 mm 7 mps 746 mmHg 85%
    13:00 +12°C° 0 mm 7 mps 745 mmHg 85%
    14:00 +12°C° 0 mm 7 mps 745 mmHg 84%
    15:00 +12°C° 0 mm 7 mps 744 mmHg 84%
    16:00 +12°C° 0.1 mm 8 mps 743 mmHg 84%
    17:00 +12°C° 0.1 mm 8 mps 743 mmHg 84%
    18:00 +12°C° 0.1 mm 8 mps 742 mmHg 85%
    19:00 +12°C° 0.1 mm 9 mps 742 mmHg 85%
    20:00 +12°C° 0.1 mm 9 mps 742 mmHg 86%
    21:00 +13°C° 0.1 mm 9 mps 742 mmHg 86%
    22:00 +13°C° 0.5 mm 9 mps 741 mmHg 87%
    23:00 +13°C° 0.5 mm 9 mps 741 mmHg 87%

    22 November, Wednesday

    Time Temperature Precipitation Wind Pressure Humidity
    00:00 +13°C° 0.5 mm 9 mps 741 mmHg 88%
    01:00 +13°C° 0.3 mm 8 mps 741 mmHg 87%
    02:00 +13°C° 0.3 mm 8 mps 740 mmHg 86%
    03:00 +13°C° 0.3 mm 8 mps 740 mmHg 85%
    04:00 +12°C° 0 mm 8 mps 740 mmHg 85%
    05:00 +12°C° 0 mm 8 mps 740 mmHg 85%
    06:00 +12°C° 0 mm 8 mps 740 mmHg 85%
    07:00 +12°C° 0.1 mm 8 mps 739 mmHg 86%
    08:00 +12°C° 0.1 mm 8 mps 739 mmHg 86%
    09:00 +12°C° 0.1 mm 9 mps 739 mmHg 86%
    10:00 +12°C° 0.1 mm 9 mps 738 mmHg 84%
    11:00 +13°C° 0.1 mm 9 mps 738 mmHg 82%
    12:00 +13°C° 0.1 mm 10 mps 738 mmHg 80%
    13:00 +13°C° 0.1 mm 10 mps 737 mmHg 79%
    14:00 +13°C° 0.1 mm 10 mps 736 mmHg 78%
    15:00 +13°C° 0.1 mm 11 mps 736 mmHg 76%
    16:00 +13°C° 0.3 mm 11 mps 735 mmHg 77%
    17:00 +13°C° 0.3 mm 11 mps 734 mmHg 77%
    18:00 +13°C° 0.3 mm 12 mps 734 mmHg 77%
    19:00 +13°C° 1.1 mm 11 mps 734 mmHg 80%
    20:00 +13°C° 1.1 mm 11 mps 733 mmHg 83%
    21:00 +12°C° 1.1 mm 10 mps 733 mmHg 86%
    22:00 +12°C° 0.8 mm 11 mps 732 mmHg 85%
    23:00 +12°C° 0.8 mm 11 mps 732 mmHg 83%

    23 November, Thursday

    Time Temperature Precipitation Wind Pressure Humidity
    00:00 +12°C° 0.8 mm 11 mps 731 mmHg 82%
    01:00 +12°C° 0.7 mm 11 mps 731 mmHg 81%
    02:00 +12°C° 0.7 mm 11 mps 732 mmHg 81%
    03:00 +12°C° 0.7 mm 11 mps 732 mmHg 80%
    04:00 +12°C° 0 mm 10 mps 733 mmHg 81%
    05:00 +12°C° 0 mm 10 mps 733 mmHg 83%
    06:00 +11°C° 0 mm 9 mps 734 mmHg 84%
    07:00 +11°C° 0.1 mm 8 mps 735 mmHg 82%
    08:00 +11°C° 0.1 mm 8 mps 736 mmHg 80%
    09:00 +10°C° 0.1 mm 7 mps 737 mmHg 79%
    10:00 +11°C° 0 mm 8 mps 738 mmHg 77%
    11:00 +11°C° 0 mm 8 mps 738 mmHg 76%
    12:00 +12°C° 0 mm 8 mps 738 mmHg 75%
    13:00 +12°C° 0.1 mm 9 mps 738 mmHg 77%
    14:00 +13°C° 0.1 mm 9 mps 738 mmHg 79%
    15:00 +13°C° 0.1 mm 10 mps 738 mmHg 81%
    16:00 +13°C° 0.1 mm 10 mps 738 mmHg 82%
    17:00 +12°C° 0.1 mm 10 mps 738 mmHg 82%
    18:00 +12°C° 0.1 mm 9 mps 738 mmHg 83%
    19:00 +12°C° 0.2 mm 9 mps 739 mmHg 83%
    20:00 +12°C° 0.2 mm 8 mps 739 mmHg 83%
    21:00 +12°C° 0.2 mm 7 mps 740 mmHg 84%
    22:00 +11°C° 0 mm 7 mps 740 mmHg 85%
    23:00 +11°C° 0 mm 6 mps 740 mmHg 86%

    24 November, Friday

    Time Temperature Precipitation Wind Pressure Humidity
    00:00 +10°C° 0 mm 5 mps 741 mmHg 87%
    01:00 +10°C° 0 mm 5 mps 741 mmHg 88%
    02:00 +11°C° 0 mm 4 mps 741 mmHg 88%
    03:00 +10°C° 0 mm 3 mps 741 mmHg 89%
    04:00 +10°C° 0.8 mm 3 mps 741 mmHg 91%
    05:00 +10°C° 0.8 mm 3 mps 740 mmHg 92%
    06:00 +10°C° 0.8 mm 3 mps 740 mmHg 94%
    07:00 +10°C° 2.5 mm 4 mps 740 mmHg 93%
    08:00 +9°C° 2.5 mm 5 mps 739 mmHg 92%
    09:00 +10°C° 2.5 mm 7 mps 739 mmHg 90%
    10:00 +10°C° 2 mm 7 mps 738 mmHg 89%
    11:00 +10°C° 2 mm 8 mps 737 mmHg 87%
    12:00 +11°C° 2 mm 9 mps 737 mmHg 85%
    13:00 +11°C° 0.2 mm 9 mps 736 mmHg 85%
    14:00 +12°C° 0.2 mm 9 mps 735 mmHg 85%
    15:00 +12°C° 0.2 mm 8 mps 735 mmHg 85%
    16:00 +12°C° 0.1 mm 8 mps 735 mmHg 84%
    17:00 +11°C° 0.1 mm 8 mps 735 mmHg 84%
    18:00 +11°C° 0.1 mm 8 mps 735 mmHg 83%
    19:00 +11°C° 0 mm 8 mps 735 mmHg 82%
    20:00 +10°C° 0 mm 9 mps 736 mmHg 81%
    21:00 +10°C° 0 mm 9 mps 736 mmHg 80%
    22:00 +9°C° 0 mm 8 mps 737 mmHg 82%
    23:00 +9°C° 0 mm 7 mps 737 mmHg 83%
    Show more